Time,TemperatureF,DewpointF,PressureIn,WindDirection,WindDirectionDegrees,WindSpeedMPH,WindSpeedGustMPH,Humidity,HourlyPrecipIn,Conditions,Clouds,dailyrainin,SoftwareType,DateUTC
2013-01-13 00:03:00,47.0,45.0,29.95,SW,227,0.0,-999.0,94,-99.99,,,0.01,weatherlink.com 1.10,2013-01-13 05:03:00,
2013-01-13 00:18:00,46.7,45.0,29.93,SW,227,0.0,-999.0,94,-99.99,,,0.01,weatherlink.com 1.10,2013-01-13 05:18:00,
2013-01-13 00:33:00,46.4,45.0,29.93,SW,227,0.0,-999.0,94,-99.99,,,0.01,weatherlink.com 1.10,2013-01-13 05:33:00,
2013-01-13 00:48:00,46.2,45.0,29.93,SW,227,0.0,-999.0,94,-99.99,,,0.01,weatherlink.com 1.10,2013-01-13 05:48:00,
2013-01-13 01:03:00,45.4,44.0,29.93,SW,227,0.0,-999.0,94,-99.99,,,0.01,weatherlink.com 1.10,2013-01-13 06:03:00,
2013-01-13 01:18:00,45.1,44.0,29.92,SW,227,0.0,-999.0,94,-99.99,,,0.01,weatherlink.com 1.10,2013-01-13 06:18:00,
2013-01-13 01:33:00,46.1,45.0,29.92,SW,227,0.0,-999.0,95,-99.99,,,0.01,weatherlink.com 1.10,2013-01-13 06:33:00,
2013-01-13 01:48:00,46.3,45.0,29.92,SW,227,2.0,-999.0,95,-99.99,,,0.01,weatherlink.com 1.10,2013-01-13 06:48:00,
2013-01-13 02:03:00,46.3,45.0,29.91,SW,227,1.0,-999.0,95,-99.99,,,0.01,weatherlink.com 1.10,2013-01-13 07:03:00,
2013-01-13 02:18:00,45.7,44.0,29.91,SW,227,2.0,-999.0,95,-99.99,,,0.01,weatherlink.com 1.10,2013-01-13 07:18:00,
2013-01-13 02:33:00,45.7,44.0,29.90,ENE,72,7.0,-999.0,95,-99.99,,,0.01,weatherlink.com 1.10,2013-01-13 07:33:00,
2013-01-13 02:48:00,45.1,44.0,29.88,ENE,67,5.0,-999.0,95,-99.99,,,0.01,weatherlink.com 1.10,2013-01-13 07:48:00,
2013-01-13 03:03:00,45.7,44.0,29.87,ENE,59,4.0,-999.0,95,-99.99,,,0.00,weatherlink.com 1.10,2013-01-13 08:03:00,
2013-01-13 03:18:00,45.6,44.0,29.87,East,86,7.0,-999.0,95,-99.99,,,0.01,weatherlink.com 1.10,2013-01-13 08:18:00,
2013-01-13 03:34:00,44.7,43.0,29.86,ENE,62,6.0,-999.0,95,-99.99,,,0.03,weatherlink.com 1.10,2013-01-13 08:34:00,
2013-01-13 03:49:00,45.3,44.0,29.86,East,100,7.0,-999.0,95,-99.99,,,0.06,weatherlink.com 1.10,2013-01-13 08:49:00,
2013-01-13 04:04:00,44.7,43.0,29.86,East,80,8.0,-999.0,95,-99.99,,,0.11,weatherlink.com 1.10,2013-01-13 09:04:00,
2013-01-13 04:19:00,44.0,43.0,29.84,NE,53,6.0,-999.0,95,-99.99,,,0.15,weatherlink.com 1.10,2013-01-13 09:19:00,
2013-01-13 04:34:00,44.3,43.0,29.83,NE,45,7.0,-999.0,95,-99.99,,,0.17,weatherlink.com 1.10,2013-01-13 09:34:00,
2013-01-13 04:49:00,45.0,44.0,29.83,NE,56,6.0,-999.0,96,-99.99,,,0.20,weatherlink.com 1.10,2013-01-13 09:49:00,
2013-01-13 05:04:00,45.7,45.0,29.82,ENE,65,8.0,-999.0,96,-99.99,,,0.25,weatherlink.com 1.10,2013-01-13 10:04:00,
2013-01-13 05:19:00,45.7,45.0,29.79,East,98,8.0,-999.0,96,-99.99,,,0.30,weatherlink.com 1.10,2013-01-13 10:19:00,
2013-01-13 05:34:00,45.8,45.0,29.77,NE,43,7.0,-999.0,96,-99.99,,,0.35,weatherlink.com 1.10,2013-01-13 10:34:00,
2013-01-13 05:49:00,46.2,45.0,29.77,ENE,74,10.0,-999.0,96,-99.99,,,0.39,weatherlink.com 1.10,2013-01-13 10:49:00,
2013-01-13 06:04:00,45.6,45.0,29.76,ENE,69,10.0,-999.0,96,-99.99,,,0.43,weatherlink.com 1.10,2013-01-13 11:04:00,
2013-01-13 06:19:00,45.1,44.0,29.75,East,90,11.0,-999.0,96,-99.99,,,0.47,weatherlink.com 1.10,2013-01-13 11:19:00,
2013-01-13 06:34:00,45.1,44.0,29.76,ENE,60,5.0,-999.0,96,-99.99,,,0.50,weatherlink.com 1.10,2013-01-13 11:34:00,
2013-01-13 06:49:00,45.0,44.0,29.76,NE,51,4.0,-999.0,96,-99.99,,,0.53,weatherlink.com 1.10,2013-01-13 11:49:00,
2013-01-13 07:04:00,44.9,44.0,29.77,NE,56,4.0,-999.0,96,-99.99,,,0.56,weatherlink.com 1.10,2013-01-13 12:04:00,
2013-01-13 07:19:00,45.2,44.0,29.75,East,83,6.0,-999.0,96,-99.99,,,0.59,weatherlink.com 1.10,2013-01-13 12:19:00,
2013-01-13 07:34:00,45.0,44.0,29.75,ENE,77,7.0,-999.0,96,-99.99,,,0.62,weatherlink.com 1.10,2013-01-13 12:34:00,
2013-01-13 07:49:00,45.5,45.0,29.74,ENE,74,7.0,-999.0,96,-99.99,,,0.65,weatherlink.com 1.10,2013-01-13 12:49:00,
2013-01-13 08:04:00,45.2,44.0,29.75,NE,54,3.0,-999.0,96,-99.99,,,0.68,weatherlink.com 1.10,2013-01-13 13:04:00,
2013-01-13 08:19:00,45.5,45.0,29.74,NE,54,2.0,-999.0,96,-99.99,,,0.70,weatherlink.com 1.10,2013-01-13 13:19:00,
2013-01-13 08:34:00,45.5,45.0,29.74,NNE,26,7.0,-999.0,96,-99.99,,,0.72,weatherlink.com 1.10,2013-01-13 13:34:00,
2013-01-13 08:49:00,46.4,45.0,29.74,ENE,68,6.0,-999.0,96,-99.99,,,0.72,weatherlink.com 1.10,2013-01-13 13:49:00,
2013-01-13 09:04:00,46.0,45.0,29.73,ENE,77,4.0,-999.0,96,-99.99,,,0.72,weatherlink.com 1.10,2013-01-13 14:04:00,
2013-01-13 09:19:00,45.8,45.0,29.74,NE,39,6.0,-999.0,96,-99.99,,,0.72,weatherlink.com 1.10,2013-01-13 14:19:00,
2013-01-13 09:34:00,46.0,45.0,29.74,NE,37,3.0,-999.0,96,-99.99,,,0.72,weatherlink.com 1.10,2013-01-13 14:34:00,
2013-01-13 09:49:00,46.2,45.0,29.74,NE,37,0.0,-999.0,96,-99.99,,,0.72,weatherlink.com 1.10,2013-01-13 14:49:00,
2013-01-13 10:04:00,46.0,45.0,29.74,NE,40,4.0,-999.0,96,-99.99,,,0.72,weatherlink.com 1.10,2013-01-13 15:04:00,
2013-01-13 10:19:00,44.9,44.0,29.74,NE,53,3.0,-999.0,96,-99.99,,,0.72,weatherlink.com 1.10,2013-01-13 15:19:00,
2013-01-13 10:34:00,44.3,43.0,29.75,NE,52,2.0,-999.0,96,-99.99,,,0.72,weatherlink.com 1.10,2013-01-13 15:34:00,
2013-01-13 10:49:00,44.4,43.0,29.75,NE,53,3.0,-999.0,96,-99.99,,,0.72,weatherlink.com 1.10,2013-01-13 15:49:00,
2013-01-13 11:04:00,44.5,44.0,29.76,NE,53,3.0,-999.0,96,-99.99,,,0.72,weatherlink.com 1.10,2013-01-13 16:04:00,
2013-01-13 11:19:00,45.1,44.0,29.74,NE,53,0.0,-999.0,96,-99.99,,,0.72,weatherlink.com 1.10,2013-01-13 16:19:00,
2013-01-13 11:34:00,47.0,46.0,29.75,NE,53,5.0,-999.0,97,-99.99,,,0.72,weatherlink.com 1.10,2013-01-13 16:34:00,
2013-01-13 11:49:00,47.9,47.0,29.74,NE,53,7.0,-999.0,97,-99.99,,,0.72,weatherlink.com 1.10,2013-01-13 16:49:00,
2013-01-13 12:04:00,47.2,46.0,29.75,WSW,249,9.0,-999.0,97,-99.99,,,0.72,weatherlink.com 1.10,2013-01-13 17:04:00,
2013-01-13 12:19:00,46.9,46.0,29.74,West,259,9.0,-999.0,97,-99.99,,,0.72,weatherlink.com 1.10,2013-01-13 17:19:00,
2013-01-13 12:34:00,47.1,46.0,29.74,West,261,7.0,-999.0,97,-99.99,,,0.72,weatherlink.com 1.10,2013-01-13 17:34:00,
2013-01-13 12:49:00,49.3,49.0,29.73,West,260,6.0,-999.0,97,-99.99,,,0.72,weatherlink.com 1.10,2013-01-13 17:49:00,
2013-01-13 13:04:00,49.2,48.0,29.74,WSW,244,8.0,-999.0,97,-99.99,,,0.72,weatherlink.com 1.10,2013-01-13 18:04:00,
2013-01-13 13:19:00,49.2,48.0,29.75,WSW,245,10.0,-999.0,97,-99.99,,,0.72,weatherlink.com 1.10,2013-01-13 18:19:00,
2013-01-13 13:34:00,47.9,47.0,29.75,WSW,245,8.0,-999.0,96,-99.99,,,0.72,weatherlink.com 1.10,2013-01-13 18:34:00,
2013-01-13 13:49:00,50.0,50.0,29.75,WSW,245,7.0,-999.0,100,-99.99,,,0.72,weatherlink.com 1.10,2013-01-13 18:49:00,
2013-01-13 14:04:00,50.7,50.0,29.76,WSW,245,6.0,-999.0,97,-99.99,,,0.72,weatherlink.com 1.10,2013-01-13 19:04:00,
2013-01-13 14:19:00,50.3,49.0,29.76,WSW,245,4.0,-999.0,96,-99.99,,,0.72,weatherlink.com 1.10,2013-01-13 19:19:00,
2013-01-13 14:34:00,51.1,50.0,29.77,WSW,244,5.0,-999.0,96,-99.99,,,0.73,weatherlink.com 1.10,2013-01-13 19:34:00,
2013-01-13 14:49:00,51.2,50.0,29.78,WSW,245,4.0,-999.0,96,-99.99,,,0.73,weatherlink.com 1.10,2013-01-13 19:49:00,
2013-01-13 15:04:00,50.9,50.0,29.80,WSW,245,7.0,-999.0,96,-99.99,,,0.73,weatherlink.com 1.10,2013-01-13 20:04:00,
2013-01-13 15:19:00,52.8,52.0,29.80,WSW,245,8.0,-999.0,96,-99.99,,,0.73,weatherlink.com 1.10,2013-01-13 20:19:00,
2013-01-13 15:34:00,55.7,52.0,29.80,West,269,20.0,-999.0,87,-99.99,,,0.73,weatherlink.com 1.10,2013-01-13 20:34:00,
2013-01-13 15:49:00,55.5,50.0,29.82,West,273,20.0,-999.0,82,-99.99,,,0.73,weatherlink.com 1.10,2013-01-13 20:49:00,
2013-01-13 16:04:00,54.5,49.0,29.83,West,271,23.0,-999.0,82,-99.99,,,0.73,weatherlink.com 1.10,2013-01-13 21:04:00,
2013-01-13 16:20:00,53.2,48.0,29.83,West,263,15.0,-999.0,82,-99.99,,,0.73,weatherlink.com 1.10,2013-01-13 21:20:00,
2013-01-13 16:35:00,52.7,48.0,29.82,West,265,9.0,-999.0,83,-99.99,,,0.73,weatherlink.com 1.10,2013-01-13 21:35:00,
2013-01-13 16:50:00,51.2,48.0,29.82,West,263,7.0,-999.0,87,-99.99,,,0.73,weatherlink.com 1.10,2013-01-13 21:50:00,
2013-01-13 17:05:00,52.8,49.0,29.82,WSW,244,9.0,-999.0,86,-99.99,,,0.73,weatherlink.com 1.10,2013-01-13 22:05:00,
2013-01-13 17:20:00,53.1,49.0,29.83,WSW,242,10.0,-999.0,85,-99.99,,,0.73,weatherlink.com 1.10,2013-01-13 22:20:00,
2013-01-13 17:35:00,50.6,47.0,29.84,WSW,241,7.0,-999.0,87,-99.99,,,0.73,weatherlink.com 1.10,2013-01-13 22:35:00,
2013-01-13 17:50:00,50.8,47.0,29.84,SW,229,4.0,-999.0,88,-99.99,,,0.73,weatherlink.com 1.10,2013-01-13 22:50:00,
2013-01-13 18:05:00,50.4,47.0,29.85,SW,225,8.0,-999.0,88,-99.99,,,0.73,weatherlink.com 1.10,2013-01-13 23:05:00,
2013-01-13 18:20:00,49.6,46.0,29.85,SW,223,7.0,-999.0,87,-99.99,,,0.73,weatherlink.com 1.10,2013-01-13 23:20:00,
2013-01-13 18:35:00,48.0,45.0,29.85,WSW,240,6.0,-999.0,88,-99.99,,,0.73,weatherlink.com 1.10,2013-01-13 23:35:00,
2013-01-13 18:50:00,48.1,45.0,29.84,WSW,240,6.0,-999.0,90,-99.99,,,0.73,weatherlink.com 1.10,2013-01-13 23:50:00,
2013-01-13 19:05:00,47.8,45.0,29.84,WSW,241,4.0,-999.0,90,-99.99,,,0.73,weatherlink.com 1.10,2013-01-14 00:05:00,
2013-01-13 19:20:00,49.5,47.0,29.83,WSW,240,6.0,-999.0,90,-99.99,,,0.73,weatherlink.com 1.10,2013-01-14 00:20:00,
2013-01-13 19:35:00,49.5,46.0,29.83,West,263,10.0,-999.0,89,-99.99,,,0.73,weatherlink.com 1.10,2013-01-14 00:35:00,
2013-01-13 20:05:00,51.6,47.0,29.82,WNW,286,6.0,-999.0,84,-99.99,,,0.73,weatherlink.com 1.10,2013-01-14 01:05:00,
2013-01-13 20:20:00,49.5,46.0,29.83,NNE,17,6.0,-999.0,86,-99.99,,,0.73,weatherlink.com 1.10,2013-01-14 01:20:00,
2013-01-13 20:35:00,48.1,45.0,29.83,NNE,17,7.0,-999.0,88,-99.99,,,0.73,weatherlink.com 1.10,2013-01-14 01:35:00,
2013-01-13 20:50:00,47.5,45.0,29.82,NNE,17,2.0,-999.0,90,-99.99,,,0.73,weatherlink.com 1.10,2013-01-14 01:50:00,
2013-01-13 21:05:00,46.7,44.0,29.82,NNE,17,2.0,-999.0,90,-99.99,,,0.74,weatherlink.com 1.10,2013-01-14 02:05:00,
2013-01-13 21:20:00,45.4,43.0,29.81,NNE,17,3.0,-999.0,90,-99.99,,,0.75,weatherlink.com 1.10,2013-01-14 02:20:00,
2013-01-13 21:35:00,45.0,43.0,29.82,NNE,17,1.0,-999.0,92,-99.99,,,0.76,weatherlink.com 1.10,2013-01-14 02:35:00,
2013-01-13 21:50:00,44.2,42.0,29.82,NNE,17,0.0,-999.0,92,-99.99,,,0.76,weatherlink.com 1.10,2013-01-14 02:50:00,
2013-01-13 22:05:00,44.1,42.0,29.81,NNE,17,0.0,-999.0,93,-99.99,,,0.76,weatherlink.com 1.10,2013-01-14 03:05:00,
2013-01-13 22:20:00,44.3,42.0,29.81,NNE,17,1.0,-999.0,93,-99.99,,,0.76,weatherlink.com 1.10,2013-01-14 03:20:00,
2013-01-13 22:35:00,44.7,43.0,29.79,NNE,17,1.0,-999.0,93,-99.99,,,0.76,weatherlink.com 1.10,2013-01-14 03:35:00,
2013-01-13 22:50:00,44.6,43.0,29.80,NNE,17,3.0,-999.0,94,-99.99,,,0.76,weatherlink.com 1.10,2013-01-14 03:50:00,
2013-01-13 23:05:00,43.8,42.0,29.80,WNW,288,7.0,-999.0,94,-99.99,,,0.76,weatherlink.com 1.10,2013-01-14 04:05:00,
2013-01-13 23:20:00,43.1,42.0,29.79,WNW,288,5.0,-999.0,94,-99.99,,,0.76,weatherlink.com 1.10,2013-01-14 04:20:00,
2013-01-13 23:38:00,43.4,42.0,29.78,WNW,288,0.0,-999.0,94,-99.99,,,0.76,weatherlink.com 1.10,2013-01-14 04:38:00,
2013-01-13 23:50:00,43.6,42.0,29.80,WNW,288,8.0,-999.0,94,-99.99,,,0.77,weatherlink.com 1.10,2013-01-14 04:50:00,